{"data":{"norad_id":66275,"intl_designator":"2025-247L","name":"STARLINK-35752","alt_names":[],"object_type":"PAYLOAD","status":"ACTIVE","operator":null,"country":"US","launch_date":"2025-10-31","launch_site_code":"AFWTR","launch_vehicle":null,"mission":null,"orbit_class":"UNKNOWN","rcs_meters":null,"size_class":null,"mass_kg":null,"dimensions":null,"purposes":["comms"],"wikipedia_slug":null,"has_3d_model":false,"image_url":null,"decayed_at":null,"tle_current":{"epoch":"2026-05-24T15:50:30.079104Z","epoch_age_seconds":105254,"freshness":"FRESH","line1":"1 66275U 25247L   26144.66007036  .00010124  00000+0  35330-3 0  9995","line2":"2 66275  53.1580 198.6696 0001106  83.7533 276.3594 15.30216498 32664","mean_motion":15.30216498,"eccentricity":0.0001106,"inclination_deg":53.158,"raan_deg":198.6696,"arg_perigee_deg":83.7533,"mean_anomaly_deg":276.3594,"bstar":0.0003533,"rev_number":3266,"period_min":94.104331111453,"perigee_km":474.40783451692,"apogee_km":475.92378509845,"semimajor_km":6853.3028098077,"source":"CELESTRAK","updated_at":"2026-05-25T13:38:21.161760Z"}}}